Regional Weather Roundup
Issued by NWS

Home | Current Version | Previous Version | Text Only | Print | Product List | Glossary Off
Versions: 1 2 3 4 5 6 7 8 9 10 11 12 13 14 15 16 17 18 19 20 21 22 23 24 25 26 27

000
ASUS45 KCYS 201310
RWRWY

WYOMING REGIONAL WEATHER ROUNDUP
NATIONAL WEATHER SERVICE CHEYENNE WY
600 AM MST TUE FEB 20 2018

NOTE:  "FAIR" INDICATES FEW OR NO CLOUDS BELOW 12,000 FEET
WITH NO SIGNIFICANT WEATHER AND/OR OBSTRUCTIONS TO VISIBILITY.

WYZ001-201400-
YELLOWSTONE NATIONAL PARK

CITY           SKY/WX    TMP DP  RH WIND       PRES   REMARKS
LK YELLOWSTONE   N/A    -29 -34  76 CALM      29.71R
W YELLOWSTONE  NOT AVBL

$$
WYZ002>013-054>058-071-098>099-201400-
NORTHERN WYOMING

CITY           SKY/WX    TMP DP  RH WIND       PRES   REMARKS
JACKSON        FLURRIES  -2  -8  76 N8        29.78R WCI -17
CODY           FAIR     -18 -22  82 CALM      29.90R
GREYBULL       MOCLDY   -25 -27  90 CALM      30.04R FOG
WORLAND        FAIR     -17 -20  86 CALM      29.99S
SHERIDAN       FAIR     -18 -22  82 CALM      29.98R
BUFFALO        FAIR     -15 -20  78 W7        29.88R WCI -31
GILLETTE       FAIR      -9 -14  78 SW12      29.94R WCI -28
HULETT         FAIR      -8 -13  77 MISG      29.95S
NEWCASTLE      FAIR     -11 -17  77 NW8       29.95S WCI -28

$$
WYZ014>020-022>026-101>103-201400-
CENTRAL WYOMING

CITY           SKY/WX    TMP DP  RH WIND       PRES   REMARKS
BIG PINEY      CLOUDY    -6 -10  83 NW5       29.76R WCI -17
PINEDALE       FAIR     -20 -26  76 NW5       29.77R WCI -33
DUBOIS         NOT AVBL
LANDER         FAIR     -10 -14  82 CALM      29.85R
RIVERTON       FAIR     -11 -18  71 NE3       29.86R
CASPER         MOCLDY   -13 -18  78 SW14      29.86R WCI -35
DOUGLAS        FAIR     -17 -23  73 NW3       29.91R

$$
WYZ021-027>030-104>119-201400-
SOUTHERN WYOMING

CITY           SKY/WX    TMP DP  RH WIND       PRES   REMARKS
EVANSTON       LGT SNOW   4   1  88 SW10      29.76R FOG     WCI -11
FORT BRIDGER   PTSUNNY   -2  -8  78 SW8       29.79R WCI -17
ROCK SPRINGS   FAIR      -7 -13  75 SE5       29.79R WCI -18
DIXON          LGT SNOW  -6 -12  77 NE7       29.85R WCI -20
RAWLINS        MOCLDY    -9 -14  78 CALM      29.76R
SARATOGA       CLOUDY    -9 -15  77 SE6       29.76R WCI -23
LARAMIE        FAIR     -18 -19  96 W5        29.71R WCI -31
CHEYENNE       FAIR     -11 -15  82 W3        29.78R
TORRINGTON     FAIR      -8 -12  83 CALM      29.95R
PINE BLUFFS    FAIR     -15 -20  76 MISG      29.89R

$$




USA.gov is the U.S. government's official web portal to all federal, state and local government web resources and services.